Location: Caltech
(34.1382°N, 118.1253°W)
Time: 14:59:52
(UTC-07:00)

Iridium 62 - Visible Passes

Search period start: 23 March 2017 00:00
Search period end: 02 April 2017 00:00
Orbit: 776 x 779 km, 86.4° (Epoch: 22 March)

Date Brightness Start Highest point End Pass type
(mag) Time Alt. Az. Time Alt. Az. Time Alt. Az.
23 Mar 6.3 05:58:52 10° S 06:04:01 68° E 06:09:12 10° N visible
24 Mar 7.6 05:25:58 10° SSE 05:30:38 34° E 05:35:19 10° NNE visible
25 Mar 8.6 04:53:55 10° ESE 04:57:22 18° E 05:00:48 10° NE visible
26 Mar 5.8 05:58:54 10° S 06:04:06 81° W 06:09:21 10° N visible
27 Mar 6.7 05:25:38 10° SSE 05:30:39 52° E 05:35:42 10° NNE visible
28 Mar 8.0 04:53:01 10° SE 04:57:18 27° E 05:01:37 10° NNE visible
29 Mar 8.8 04:21:32 10° ESE 04:24:05 14° E 04:26:39 10° NE visible
29 Mar 5.9 05:59:10 10° SSW 06:04:14 54° W 06:09:21 10° N visible
30 Mar 6.0 05:25:31 10° S 05:30:43 78° E 05:35:56 10° N visible
31 Mar 7.2 04:52:29 10° SSE 04:57:18 39° E 05:02:08 10° NNE visible
01 Apr 8.3 04:20:13 10° SE 04:24:00 21° E 04:27:48 10° NE visible
01 Apr 6.4 05:59:40 10° SSW 06:04:25 36° W 06:09:12 10° NNW visible
